TimeCST,TemperatureF,Dew PointF,Humidity,Sea Level PressureIn,VisibilityMPH,Wind Direction,Wind SpeedMPH,Gust SpeedMPH,PrecipitationIn,Events,Conditions,WindDirDegrees,DateUTC
12:15 AM,51.8,46.4,82,30.24,10.0,SSW,3.5,-,N/A,,Clear,210,2013-01-23 06:15:00
12:35 AM,53.6,46.4,77,30.24,10.0,South,5.8,-,N/A,,Clear,190,2013-01-23 06:35:00
12:55 AM,53.6,46.4,77,30.24,10.0,South,4.6,-,N/A,,Clear,190,2013-01-23 06:55:00
1:15 AM,51.8,46.4,82,30.23,10.0,SW,4.6,-,N/A,,Clear,220,2013-01-23 07:15:00
1:35 AM,51.8,46.4,82,30.23,10.0,SSW,6.9,-,N/A,,Clear,200,2013-01-23 07:35:00
1:55 AM,53.6,46.4,77,30.24,10.0,SSW,8.1,-,N/A,,Clear,200,2013-01-23 07:55:00
2:15 AM,53.6,46.4,77,30.24,10.0,SSW,9.2,-,N/A,,Clear,200,2013-01-23 08:15:00
2:35 AM,51.8,46.4,82,30.24,10.0,SSW,8.1,-,N/A,,Clear,200,2013-01-23 08:35:00
3:15 AM,51.8,46.4,82,30.25,10.0,SSW,5.8,-,N/A,,Clear,200,2013-01-23 09:15:00
3:35 AM,51.8,46.4,82,30.25,10.0,SSW,4.6,-,N/A,,Clear,210,2013-01-23 09:35:00
3:55 AM,50.0,46.4,87,30.25,10.0,SSW,5.8,-,N/A,,Clear,200,2013-01-23 09:55:00
4:15 AM,50.0,46.4,87,30.25,10.0,SSW,4.6,-,N/A,,Clear,200,2013-01-23 10:15:00
4:35 AM,50.0,46.4,87,30.26,10.0,Calm,Calm,-,N/A,,Clear,0,2013-01-23 10:35:00
4:55 AM,50.0,44.6,82,30.26,10.0,South,4.6,-,N/A,,Clear,180,2013-01-23 10:55:00
5:15 AM,50.0,44.6,82,30.27,10.0,South,4.6,-,N/A,,Scattered Clouds,190,2013-01-23 11:15:00
5:35 AM,50.0,44.6,82,30.27,10.0,South,4.6,-,N/A,,Mostly Cloudy,180,2013-01-23 11:35:00
5:55 AM,50.0,46.4,87,30.27,10.0,SSW,4.6,-,N/A,,Mostly Cloudy,200,2013-01-23 11:55:00
8:49 AM,51.8,48.2,88,30.29,10.0,South,9.2,-,N/A,,Clear,190,2013-01-23 14:49:00
9:51 AM,57.2,51.8,82,30.31,10.0,SSW,9.2,-,N/A,,Clear,200,2013-01-23 15:51:00
10:54 AM,64.4,51.8,64,30.30,10.0,North,-9999.0,-,N/A,,Clear,0,2013-01-23 16:54:00
11:51 AM,66.2,51.8,60,30.28,10.0,SSW,11.5,20.7,N/A,,Clear,210,2013-01-23 17:51:00
12:51 PM,68.0,51.8,56,30.25,10.0,South,11.5,20.7,N/A,,Clear,190,2013-01-23 18:51:00
1:53 PM,71.6,53.6,53,30.21,10.0,SSE,9.2,-,N/A,,Clear,160,2013-01-23 19:53:00
2:49 PM,71.6,51.8,50,30.19,10.0,South,9.2,17.3,N/A,,Clear,180,2013-01-23 20:49:00
3:57 PM,73.4,51.8,47,30.18,10.0,South,11.5,18.4,N/A,,Clear,180,2013-01-23 21:57:00
4:51 PM,71.6,53.6,53,30.18,10.0,South,8.1,-,N/A,,Clear,170,2013-01-23 22:51:00
5:53 PM,68.0,53.6,60,30.17,10.0,SSE,8.1,-,N/A,,Clear,160,2013-01-23 23:53:00
8:15 PM,64.4,53.6,68,30.15,10.0,South,11.5,16.1,N/A,,Clear,180,2013-01-24 02:15:00
8:35 PM,62.6,53.6,72,30.16,10.0,South,9.2,-,N/A,,Clear,180,2013-01-24 02:35:00
8:55 PM,62.6,53.6,72,30.17,10.0,SSW,4.6,-,N/A,,Clear,200,2013-01-24 02:55:00
9:15 PM,62.6,53.6,72,30.18,10.0,SSW,3.5,-,N/A,,Clear,200,2013-01-24 03:15:00
9:35 PM,60.8,53.6,77,30.18,10.0,SSW,6.9,-,N/A,,Clear,200,2013-01-24 03:35:00
9:55 PM,62.6,53.6,72,30.18,10.0,SSW,8.1,-,N/A,,Clear,200,2013-01-24 03:55:00
10:15 PM,62.6,53.6,72,30.18,10.0,SSW,8.1,-,N/A,,Clear,200,2013-01-24 04:15:00
10:35 PM,62.6,53.6,72,30.18,10.0,SSW,9.2,-,N/A,,Clear,200,2013-01-24 04:35:00
10:55 PM,62.6,53.6,72,30.18,10.0,SSW,10.4,-,N/A,,Clear,210,2013-01-24 04:55:00
11:15 PM,60.8,53.6,77,30.17,10.0,SSW,9.2,-,N/A,,Clear,200,2013-01-24 05:15:00
11:35 PM,60.8,53.6,77,30.17,10.0,SSW,10.4,-,N/A,,Clear,200,2013-01-24 05:35:00
11:55 PM,60.8,53.6,77,30.17,10.0,SSW,6.9,-,N/A,,Clear,200,2013-01-24 05:55:00